YUNHAI 3

Satellite information

Favourite Embed

Satellite Type and Status

PAYLOADIN ORBIT

Key statistics

Satellite YUNHAI 3 at a glance.

Uptime

1128

Days in orbit

Revolutions

≈ 14.1

Per day

Orbit

SSO

Sun Synchronous Orbit

Inclination

98.8

Latest

Satellite identification and parameters

Extended collection of information and parameters for YUNHAI 3.

Object identification

Identified? True

Debris? False

Object name: YUNHAI 3

International designator: 2022-151A

Object number (NORAD): 54235

Object ID (CCSDS): 54235

Country: PEOPLES REPUBLIC OF CHINA (PRC)

Current information (Y/N): Y

RCS size: LARGE

Orbital parameters

Period: 101.881 minutes

Inclination: 98.8195 deg

SMA: 7225.83 km

Apoapsis: 847.794 km

Periapsis: 847.597 km

RAAN: 351.3748 deg

Eccentricy: 0.00001365

Argument of periapsis: 212.5332 deg

Mean anomaly: 147.5832 deg

Mean motion: 14.1341965 rev/day

Mean motion (dot): 0.00000075 rev/day2

B* drag term: 0.000063491231 1/REarth

Two-line elements (TLE)

Creation date: Dec. 12, 2025, 10:14 a.m.

Reference frame: TEME

Reference center: EARTH

Epoch: Dec. 12, 2025, 7:44 a.m. UTC

TLE line 0: 0 YUNHAI 3

TLE line 1: 1 54235U 22151A 25346.32240617 .00000075 00000-0 63491-4 0 9994

TLE line 2: 2 54235 98.8195 351.3748 0000137 212.5332 147.5832 14.13419650158548

Live tracking on map

Real-time ground track for satellite YUNHAI 3.

In-orbit conjunctions

There are no conjunctions computed for YUNHAI 3, at the moment. Check back to stay up to date, as we update our databases every day.

Go to all conjunctions

Associated space launch

Chinese satellite reported for atmospheric/ocean/environmental/spatial parameter research purposes, details TBD.

YUNHAI 3 was lifted into orbit during the mission ‘Long March 6A | Yunhai 3’, on board a Long March 6A space rocket.

The launch took place on Nov. 11, 2022, 10:52 p.m. from Launch Complex 9A.

For more information about the launch, click the button.

Launch to space Long March 6A | Yunhai 3
Long March 6A | Yunhai 3

Agency: N/A

Status: Launch Successful

Launch date: Nov. 11, 2022, 10:52 p.m. UTC

Rocket: Long March 6A

Launch pad: Launch Complex 9A

Location: Taiyuan Satellite Launch Center, People's Republic of China

...

Latest news about this satellite

There are no fresh news available about this satellite. Check back as we update our databases every day.


Newsletter sign-up

Weekly statistics, charts and insights to help you stay on top of the space industry.